Wind_Speed
15 16 18 20 22 22 24 26 25 23 23 22 21 19 16 13 11 8 6 4 4 4 5 5 5 6 7 7 7 8 8 8 8 8 8 8 7 7 7 7 7 6 5 5 5 5 5 5 5
14 15 16 19 21 22 24 25 24 23 22 21 21 19 17 14 11 9 6 4 3 3 3 4 5 5 6 6 6 7 7 7 7 7 7 7 7 7 7 6 6 5 5 4 5 5 5 4 4
12 14 16 18 20 22 23 24 23 23 22 21 21 19 17 14 11 10 8 5 2 2 3 4 5 5 5 5 5 5 5 6 6 6 6 6 6 7 7 6 5 5 4 4 4 4 4 4 4
11 13 14 16 19 21 22 23 23 22 22 21 20 19 17 14 12 9 8 6 3 1 3 4 4 4 5 4 4 4 4 4 5 4 5 5 6 6 6 6 5 4 4 3 3 3 4 3 3
10 11 13 15 18 20 20 21 22 22 22 22 21 19 18 15 12 9 8 6 4 2 2 3 4 5 5 4 4 3 3 4 4 3 4 4 5 5 5 5 5 4 3 3 3 3 3 3 3
8 9 11 13 16 18 19 21 21 22 22 22 21 19 18 16 13 10 8 6 4 2 1 2 3 4 4 4 4 4 4 3 3 2 2 3 3 4 4 4 4 4 3 3 3 2 2 2 2
5 7 9 11 13 15 17 19 20 20 21 22 21 19 18 16 14 11 8 6 3 2 1 1 2 3 4 4 4 5 4 3 2 2 2 2 2 3 3 3 3 3 3 3 2 2 1 1 1
4 5 7 9 11 13 15 16 18 19 20 21 20 19 18 16 14 12 10 6 4 2 1 0 2 3 4 5 5 5 5 5 3 2 2 1 2 2 2 3 2 2 2 2 2 1 1 1 1
3 4 7 8 10 12 13 15 17 18 19 19 19 19 18 16 14 12 11 8 6 3 1 2 2 3 4 5 6 6 6 6 5 4 3 2 1 1 1 2 2 2 2 2 1 1 0 1 1
4 6 8 9 10 11 13 14 15 17 18 18 18 18 17 17 15 12 11 9 7 5 3 2 2 3 4 5 6 7 7 6 6 6 5 3 2 1 0 1 1 1 1 1 1 0 0 1 1
5 6 8 9 9 10 11 13 14 16 17 17 17 17 17 17 15 12 10 9 8 6 5 3 3 4 4 5 6 8 8 8 7 7 6 5 3 2 1 0 1 1 1 1 1 1 1 1 1
5 6 7 8 8 9 10 11 13 14 16 17 17 16 17 17 15 13 10 9 9 7 6 5 5 3 4 6 7 8 9 10 9 8 7 6 5 4 2 1 1 0 1 1 1 1 1 1 1
4 5 6 7 7 8 9 10 12 13 14 15 16 16 17 17 15 13 11 10 9 8 7 6 5 4 4 6 7 9 10 10 10 10 9 8 7 5 4 2 2 1 1 1 1 1 1 1 1
4 4 5 6 7 8 9 10 10 12 12 13 14 16 17 16 15 13 11 9 9 8 8 7 6 4 3 6 8 10 11 11 11 11 10 10 8 6 5 3 3 2 1 1 1 2 2 2 2
3 4 5 6 6 7 8 9 10 11 11 12 14 16 17 17 15 14 12 10 8 8 8 8 7 4 3 5 7 9 10 11 12 12 12 11 9 7 6 4 4 3 3 3 2 2 3 3 2
5 5 5 6 7 7 8 8 10 11 11 12 14 16 16 17 16 14 12 9 8 9 8 9 9 5 3 5 7 9 10 12 13 13 13 12 10 9 7 6 5 4 4 4 3 3 3 3 3
6 6 7 8 9 9 9 9 10 11 11 11 13 14 15 16 16 14 12 9 9 9 9 9 8 6 4 3 5 8 10 11 13 13 13 13 12 10 9 8 7 6 5 5 4 4 4 3 3
9 9 9 10 10 10 10 10 10 11 11 11 11 13 15 16 15 13 12 10 9 9 9 9 7 6 5 4 5 6 9 11 12 13 13 13 13 12 10 9 9 7 7 6 5 5 5 4 4
11 11 11 12 12 11 11 11 11 11 10 10 11 12 14 15 15 14 12 10 10 10 9 9 8 6 4 4 5 6 9 10 11 12 14 14 13 13 11 11 10 9 8 7 7 6 6 5 5
13 13 13 14 15 14 13 12 12 12 11 11 11 12 13 14 15 14 13 11 10 10 9 10 8 7 4 3 5 6 8 10 11 11 13 14 14 14 13 12 11 10 9 8 8 8 7 7 7
14 14 15 16 16 16 14 13 13 13 12 12 12 13 13 14 14 14 13 11 10 10 9 9 8 7 5 4 4 5 7 10 12 12 14 14 14 14 14 13 12 11 10 10 9 9 9 9 8
16 16 16 16 16 16 15 14 13 14 12 12 11 12 12 13 14 14 13 11 10 9 9 9 8 7 6 5 4 5 7 9 11 13 14 14 15 15 15 14 14 13 12 11 11 11 11 10 10
17 18 17 17 17 16 16 15 14 14 12 11 10 11 11 12 14 13 12 11 10 9 8 8 8 7 5 5 5 5 6 9 10 13 14 15 16 16 16 16 15 15 14 12 12 12 12 12 12
19 19 18 18 17 16 16 16 14 13 11 10 10 10 11 12 13 14 12 11 10 9 8 8 7 7 6 5 5 5 6 8 9 12 14 14 15 15 16 16 15 15 14 14 14 14 14 14 14
20 19 19 19 18 17 17 16 15 13 12 10 10 10 11 12 13 14 13 12 11 9 9 8 7 7 7 5 5 5 6 7 8 10 13 14 14 15 15 15 15 16 16 15 15 15 14 14 14
21 20 20 19 18 17 17 17 14 13 11 11 10 10 11 13 14 14 14 12 11 10 10 9 8 8 7 6 5 5 6 7 8 10 12 13 13 14 14 15 15 15 16 16 16 15 16 16 15
22 22 21 20 19 18 17 17 14 13 12 12 11 10 11 12 13 13 14 13 11 11 10 10 9 9 7 7 6 6 6 6 7 9 11 12 13 12 13 14 15 16 16 17 17 16 17 17 17
24 22 21 20 19 19 17 16 15 13 12 12 11 11 12 12 13 13 13 13 11 11 10 10 8 7 7 7 7 6 6 6 7 8 11 12 12 13 13 15 16 16 17 18 18 17 18 18 18
24 23 22 21 20 19 18 15 14 14 13 12 12 12 13 12 13 13 13 12 11 10 9 9 8 7 7 6 6 6 7 7 7 8 10 11 13 13 13 15 16 16 17 17 18 19 19 19 19
26 24 23 21 19 19 18 15 14 14 14 13 12 13 13 12 12 13 13 12 11 10 9 8 8 7 6 6 6 6 7 8 8 9 10 11 12 13 14 14 16 17 17 18 18 19 19 20 19
Wind_Direction
78 74 67 64 62 61 60 56 49 46 43 41 38 37 36 35 37 45 56 79 101 119 142 156 156 152 143 136 127 118 109 100 94 90 82 74 69 63 59 56 55 51 50 51 53 55 55 61 67
77 71 66 64 62 60 57 54 48 42 38 37 34 32 31 31 35 41 51 69 102 133 153 165 164 154 149 142 133 123 111 103 96 90 82 72 66 60 56 52 52 49 49 47 47 51 53 57 62
77 69 65 62 61 58 55 53 48 40 35 33 30 28 27 28 33 39 44 49 82 152 165 161 161 157 149 148 147 129 118 109 97 88 81 70 60 55 51 50 50 49 48 44 43 48 52 53 57
73 68 64 59 57 54 52 49 46 39 35 31 28 25 24 23 25 33 41 47 62 159 188 183 172 165 155 154 154 143 130 115 101 91 81 70 61 56 50 50 49 47 46 41 40 45 47 49 57
74 65 60 59 56 51 49 46 42 38 33 30 28 26 23 21 21 28 38 39 45 82 163 181 186 181 175 173 169 161 148 127 115 96 83 72 62 58 53 47 43 42 41 34 35 44 47 50 65
75 60 57 55 53 49 46 42 39 36 31 26 24 24 22 21 20 24 29 27 32 46 123 168 188 192 192 192 184 176 171 155 139 116 95 81 67 58 50 38 38 40 36 27 29 37 39 47 70
73 51 51 50 50 47 45 39 37 33 28 21 19 21 20 20 20 18 22 26 30 28 48 168 191 201 202 197 194 188 186 182 171 152 123 97 73 63 53 39 34 32 28 18 12 17 36 57 88
65 38 33 39 42 41 39 36 32 29 25 19 18 18 16 15 14 13 16 23 29 20 4 260 246 228 217 210 208 205 200 200 193 186 165 130 93 70 50 32 30 26 16 3 359 7 35 78 98
24 15 13 23 29 31 33 33 30 27 22 18 15 13 13 11 7 7 13 17 23 20 357 305 274 255 243 230 222 217 211 209 210 205 190 169 128 78 38 16 17 14 0 352 354 19 72 122 114
345 358 6 14 19 23 26 29 27 24 19 16 12 9 9 8 7 6 10 15 18 18 8 329 293 269 262 242 232 222 214 211 216 215 202 192 179 154 48 8 17 6 353 350 359 46 126 148 160
348 356 1 7 11 15 20 23 25 23 21 15 11 8 6 6 6 5 11 10 9 9 10 351 309 271 254 238 232 223 215 214 215 216 210 200 198 196 207 322 7 -0 350 330 307 232 179 171 172
351 354 0 1 5 13 21 23 25 25 18 15 14 9 4 5 4 3 2 6 5 3 1 350 328 297 248 234 234 225 217 215 216 217 211 205 207 210 219 246 267 312 326 283 245 232 178 172 182
348 347 353 1 6 14 24 25 23 21 17 12 13 9 4 3 3 1 356 356 357 357 353 348 343 321 257 232 228 224 216 216 218 217 211 208 213 216 220 234 241 240 245 228 213 210 189 173 181
339 342 353 360 1 9 23 19 17 18 14 10 9 8 5 5 4 359 354 353 357 356 350 349 348 334 268 230 225 223 218 219 220 217 211 209 213 215 217 229 229 227 227 225 205 211 205 189 182
309 319 338 348 349 357 6 12 9 10 9 5 6 5 6 6 2 358 354 347 346 347 347 344 340 329 285 235 224 217 218 218 217 216 213 209 214 220 218 225 224 225 229 217 199 194 193 192 191
292 302 311 322 329 342 349 358 358 1 0 0 2 3 4 2 360 357 352 345 342 340 338 336 335 331 293 238 227 218 216 214 214 216 216 212 214 219 221 224 226 227 221 209 199 195 198 200 200
279 284 295 304 315 324 333 341 346 349 353 355 357 360 0 359 358 355 351 344 342 336 330 331 332 330 301 250 225 218 215 214 214 217 220 217 214 215 217 223 224 221 214 208 204 206 208 212 212
272 278 286 293 305 313 320 328 336 340 348 352 355 357 356 357 355 352 348 342 340 335 332 331 328 324 298 262 231 221 221 222 219 219 221 217 215 216 218 222 220 219 220 215 211 214 217 221 223
272 276 280 285 294 302 308 315 323 332 339 344 348 350 353 354 355 352 350 344 338 334 332 331 328 326 311 265 235 233 230 227 223 223 220 216 215 217 218 222 223 225 227 226 224 224 226 229 236
270 272 276 281 289 296 301 308 313 321 328 331 338 345 347 347 351 353 352 345 339 333 331 331 330 328 310 291 249 245 242 233 226 220 218 217 218 219 220 222 226 230 233 234 232 231 233 238 241
269 272 274 278 285 291 298 304 308 318 321 325 331 335 340 340 343 347 350 347 339 333 336 333 329 331 319 295 267 248 240 237 228 223 218 218 217 219 222 224 228 233 237 239 239 237 239 243 243
266 269 272 278 283 287 293 297 303 312 314 318 325 329 335 338 339 339 341 340 337 336 338 336 334 327 318 300 268 248 243 233 226 223 221 217 215 219 223 227 232 234 239 242 242 242 244 246 247
262 267 272 276 280 284 289 294 303 307 308 308 317 325 332 337 339 340 339 338 338 338 336 332 332 324 313 303 281 252 240 229 225 219 218 219 219 222 226 230 234 237 241 242 243 246 247 248 249
262 267 270 274 277 280 285 290 299 307 305 303 310 320 332 333 333 338 339 337 336 339 337 332 324 316 303 291 273 255 246 228 220 216 218 219 219 225 228 233 236 239 242 244 247 248 249 249 250
259 264 268 271 274 278 281 285 292 296 297 298 311 319 328 333 332 335 334 334 329 330 331 326 321 316 306 286 268 256 250 234 222 220 218 220 224 228 232 235 238 240 242 246 249 249 250 250 250
255 259 264 270 272 272 275 280 289 288 289 295 307 314 322 329 333 336 336 329 327 325 325 322 314 313 305 296 276 255 244 240 231 224 222 222 228 231 234 237 241 243 245 247 250 250 251 252 252
250 255 261 266 270 270 273 279 283 282 285 289 297 306 316 327 332 334 336 330 323 320 321 323 312 308 300 288 277 258 251 242 234 228 227 231 234 237 240 241 242 245 247 249 250 252 253 254 255
248 252 257 263 267 270 274 279 283 283 284 286 292 303 311 324 333 335 336 335 327 321 320 317 320 318 308 293 277 263 259 249 240 234 230 231 237 243 244 245 247 249 251 251 252 255 257 257 258
246 249 255 260 266 271 275 280 284 284 283 285 290 296 304 314 328 336 337 337 333 326 320 320 317 320 313 298 286 267 257 254 253 247 243 243 244 245 249 251 252 253 252 253 255 258 258 258 260
244 248 252 258 265 270 275 279 282 284 285 286 289 292 298 310 323 334 337 336 331 327 321 321 322 315 312 301 290 273 263 257 252 251 249 248 248 250 255 259 256 254 255 255 258 260 260 259 260
Height
5901 5901 5900 5900 5899 5897 5895 5894 5892 5891 5891 5890 5888 5887 5887 5887 5887 5888 5886 5884 5885 5886 5887 5888 5889 5890 5891 5892 5893 5895 5896 5898 5899 5900 5901 5902 5903 5904 5904 5905 5905 5905 5905 5905 5906 5906 5906 5906 5906
5903 5903 5904 5903 5901 5899 5898 5896 5895 5894 5893 5891 5890 5889 5888 5887 5886 5886 5885 5885 5886 5887 5888 5888 5889 5891 5892 5893 5894 5895 5897 5898 5899 5901 5902 5903 5903 5904 5904 5905 5905 5905 5906 5906 5906 5906 5906 5906 5906
5906 5906 5906 5904 5902 5901 5900 5899 5898 5897 5895 5893 5892 5891 5890 5889 5888 5887 5886 5886 5887 5887 5888 5889 5890 5891 5892 5893 5895 5896 5897 5898 5900 5901 5902 5903 5903 5904 5904 5905 5905 5906 5906 5906 5907 5907 5907 5907 5907
5908 5908 5908 5906 5904 5903 5902 5901 5900 5899 5897 5896 5894 5893 5891 5890 5889 5888 5887 5887 5887 5888 5889 5889 5890 5891 5892 5894 5895 5896 5897 5899 5900 5901 5902 5903 5903 5904 5905 5905 5906 5906 5906 5907 5907 5907 5907 5907 5908
5909 5910 5909 5907 5906 5905 5904 5903 5902 5901 5899 5897 5896 5894 5893 5891 5890 5889 5888 5888 5888 5888 5889 5889 5890 5891 5892 5894 5895 5896 5897 5899 5900 5901 5902 5903 5903 5904 5905 5905 5906 5906 5907 5907 5907 5907 5908 5908 5908
5911 5911 5911 5909 5908 5907 5906 5905 5903 5902 5901 5899 5898 5896 5894 5893 5891 5890 5889 5889 5889 5889 5889 5889 5890 5891 5892 5893 5895 5896 5897 5899 5900 5901 5902 5903 5904 5904 5905 5906 5906 5906 5907 5907 5907 5908 5908 5908 5909
5913 5912 5911 5911 5910 5908 5908 5906 5905 5904 5902 5901 5899 5898 5896 5894 5893 5892 5890 5890 5889 5889 5889 5890 5890 5891 5892 5893 5894 5895 5897 5898 5900 5901 5902 5903 5904 5904 5905 5906 5906 5906 5907 5907 5908 5908 5908 5909 5909
5913 5914 5912 5911 5910 5910 5909 5908 5907 5905 5904 5902 5901 5899 5897 5896 5894 5893 5891 5890 5889 5889 5889 5890 5890 5891 5891 5892 5893 5895 5896 5897 5899 5900 5901 5903 5903 5904 5905 5906 5906 5907 5907 5907 5908 5908 5908 5909 5909
5915 5916 5913 5913 5912 5911 5910 5909 5908 5907 5905 5903 5902 5900 5899 5897 5895 5893 5892 5890 5889 5889 5889 5889 5889 5890 5890 5891 5892 5894 5895 5897 5898 5900 5901 5902 5903 5904 5905 5906 5906 5907 5907 5907 5908 5908 5909 5909 5909
5916 5916 5915 5914 5913 5912 5911 5910 5909 5908 5906 5905 5903 5901 5899 5897 5896 5894 5892 5891 5890 5889 5889 5889 5888 5889 5889 5890 5891 5892 5894 5896 5897 5899 5901 5902 5903 5904 5905 5905 5906 5907 5907 5907 5908 5908 5909 5909 5909
5916 5916 5915 5914 5914 5913 5912 5911 5910 5909 5908 5906 5904 5902 5900 5898 5896 5894 5893 5892 5891 5890 5889 5888 5888 5887 5888 5889 5890 5891 5893 5895 5896 5898 5900 5901 5903 5904 5905 5905 5906 5906 5907 5908 5908 5908 5909 5909 5909
5916 5916 5915 5915 5914 5913 5912 5912 5911 5910 5909 5907 5905 5903 5901 5899 5897 5895 5893 5892 5891 5890 5889 5887 5886 5886 5886 5887 5888 5890 5892 5893 5895 5897 5899 5901 5902 5903 5904 5905 5906 5906 5907 5907 5908 5908 5909 5909 5909
5916 5915 5915 5915 5914 5914 5913 5912 5912 5911 5910 5908 5906 5904 5902 5899 5897 5895 5893 5891 5890 5889 5888 5887 5885 5885 5885 5886 5887 5888 5890 5892 5894 5896 5898 5900 5901 5903 5904 5905 5905 5906 5906 5907 5908 5908 5909 5909 5910
5915 5915 5915 5914 5914 5914 5913 5913 5912 5911 5910 5909 5907 5905 5902 5899 5897 5895 5893 5891 5889 5889 5888 5886 5885 5883 5883 5884 5885 5887 5888 5890 5892 5895 5897 5899 5900 5902 5903 5904 5905 5905 5906 5907 5907 5908 5908 5909 5909
5915 5915 5915 5914 5914 5914 5914 5914 5913 5912 5911 5909 5907 5905 5903 5900 5897 5894 5892 5889 5888 5888 5887 5885 5884 5883 5883 5883 5884 5886 5887 5889 5891 5893 5896 5898 5899 5901 5902 5903 5904 5905 5906 5906 5907 5907 5908 5908 5909
5915 5915 5915 5915 5914 5913 5915 5914 5913 5911 5910 5909 5907 5905 5902 5900 5897 5894 5892 5890 5889 5887 5886 5885 5883 5882 5882 5882 5883 5884 5886 5887 5890 5892 5894 5896 5898 5900 5901 5903 5904 5904 5905 5906 5906 5907 5907 5908 5909
5914 5914 5914 5914 5914 5913 5913 5913 5912 5911 5910 5908 5906 5904 5902 5899 5897 5895 5892 5890 5889 5887 5885 5883 5882 5881 5881 5881 5882 5883 5884 5886 5888 5890 5893 5895 5897 5899 5900 5902 5903 5904 5905 5905 5906 5907 5907 5907 5908
5914 5914 5914 5913 5913 5913 5912 5912 5911 5910 5909 5908 5906 5904 5902 5899 5897 5894 5892 5890 5888 5886 5884 5882 5881 5880 5880 5880 5880 5881 5883 5884 5886 5888 5891 5893 5895 5897 5899 5901 5902 5903 5904 5905 5905 5906 5907 5907 5908
5913 5913 5913 5912 5912 5912 5911 5911 5910 5909 5908 5907 5905 5903 5901 5899 5896 5894 5891 5889 5888 5886 5884 5882 5880 5879 5879 5879 5879 5880 5881 5882 5884 5886 5889 5891 5894 5896 5898 5899 5901 5902 5903 5904 5904 5905 5906 5906 5907
5911 5912 5911 5911 5910 5910 5910 5910 5909 5908 5907 5906 5904 5902 5901 5898 5896 5893 5891 5888 5887 5885 5883 5881 5879 5878 5878 5878 5877 5879 5880 5881 5883 5884 5887 5889 5892 5894 5896 5898 5900 5901 5902 5903 5903 5904 5905 5905 5906
5909 5909 5909 5909 5908 5908 5908 5909 5907 5906 5905 5904 5903 5901 5900 5897 5895 5892 5890 5888 5886 5884 5882 5881 5879 5878 5877 5877 5877 5878 5878 5879 5881 5883 5885 5887 5889 5892 5894 5896 5898 5899 5901 5901 5902 5903 5904 5904 5905
5906 5906 5907 5906 5906 5906 5907 5907 5906 5905 5904 5903 5902 5900 5898 5896 5894 5891 5889 5887 5885 5883 5881 5880 5878 5878 5876 5876 5875 5876 5877 5877 5879 5881 5882 5885 5887 5890 5892 5894 5896 5897 5899 5899 5900 5901 5901 5902 5903
5903 5903 5904 5904 5904 5904 5904 5904 5905 5903 5902 5901 5900 5899 5897 5895 5892 5889 5887 5886 5884 5882 5880 5878 5877 5877 5876 5875 5874 5874 5875 5876 5877 5879 5881 5883 5885 5888 5890 5892 5893 5895 5896 5897 5898 5898 5899 5900 5900
5900 5901 5901 5901 5902 5902 5902 5902 5902 5901 5901 5900 5899 5897 5895 5893 5891 5888 5886 5884 5882 5880 5879 5877 5876 5875 5875 5874 5873 5873 5873 5874 5875 5877 5879 5881 5883 5886 5887 5889 5891 5892 5893 5894 5895 5896 5896 5897 5898
5897 5898 5898 5898 5899 5900 5899 5899 5900 5899 5898 5898 5897 5895 5893 5892 5889 5887 5885 5883 5881 5879 5877 5876 5875 5874 5873 5873 5872 5872 5872 5873 5874 5875 5877 5879 5881 5883 5885 5886 5888 5889 5890 5891 5892 5893 5893 5894 5895
5893 5894 5895 5896 5896 5897 5896 5896 5898 5897 5896 5895 5895 5893 5892 5890 5888 5886 5883 5881 5880 5878 5876 5875 5874 5873 5872 5871 5871 5871 5871 5871 5872 5873 5875 5877 5879 5880 5882 5884 5885 5886 5887 5888 5889 5890 5890 5891 5891
5889 5890 5891 5892 5892 5893 5893 5894 5895 5894 5894 5893 5893 5892 5890 5889 5887 5885 5882 5880 5878 5876 5875 5873 5872 5871 5870 5870 5869 5869 5869 5870 5870 5871 5873 5875 5877 5878 5879 5881 5882 5883 5884 5885 5885 5886 5887 5887 5888
5885 5886 5887 5888 5888 5889 5890 5891 5892 5892 5891 5891 5890 5889 5888 5887 5885 5883 5881 5879 5877 5875 5873 5872 5871 5870 5869 5868 5868 5868 5868 5869 5869 5870 5871 5873 5874 5875 5876 5877 5878 5879 5880 5881 5882 5882 5883 5884 5884
5880 5882 5883 5884 5885 5886 5887 5890 5889 5889 5889 5888 5888 5887 5886 5885 5884 5882 5880 5878 5876 5874 5873 5871 5870 5869 5868 5867 5867 5866 5866 5867 5868 5869 5869 5871 5872 5873 5873 5874 5874 5875 5876 5877 5877 5878 5878 5879 5880
5875 5877 5879 5881 5882 5882 5883 5888 5885 5885 5885 5885 5885 5884 5884 5883 5882 5881 5879 5877 5875 5873 5871 5870 5868 5867 5866 5866 5865 5865 5865 5865 5866 5867 5868 5868 5869 5870 5870 5870 5871 5871 5872 5872 5873 5873 5874 5874 5874